Home > Weather > Bellinzona > Past weeks

Flag for Switzerland Past Weather in Bellinzona, Ticino, Switzerland — Yesterday and Last 2 Weeks

Now
77 °F

Mild.


Feels Like: 79 °F
Forecast: 68 / 83 °F
Wind: 10 mph from Southeast

Location: Locarno-Magadino

Current Time: Aug 29, 2016 at 8:07:14 PM

Latest Report: Aug 29, 2016 at 7:00 PM


Visibility: N/A

Pressure: 29.94 "Hg

Humidity: 57%

Dew Point: 60 °F

Location of BellinzonaLocation

Past Weather in Bellinzona — Graph

°F

Bellinzona Temperature Yesterday

Maximum temperature yesterday: 86 °F (at 5:00 PM)
Minimum temperature yesterday: 62 °F (at 7:00 AM)
Average temperature yesterday: 73 °F

High & Low Weather Summary for the Past Weeks

 TemperatureHumidityPressure
High86 °F (Aug 28, 5:00 PM)98% (Aug 24, 7:00 AM)30.31 "Hg (Aug 24, 7:00 AM)
Low54 °F (Aug 23, 7:00 AM)30% (Aug 22, 1:00 AM)29.74 "Hg (Aug 17, 6:00 PM)
Average71 °F74%30.05 "Hg
* Reported Aug 14 6:00 PM — Aug 29 6:00 PM, Bellinzona, Weather by CustomWeather, © 2016

Note: Actual official high and low records may vary slightly from our data, if they occured in-between our weather recording intervals... More about our weather records

Advertising

Bellinzona Weather History for the Previous 24 Hours

Scroll right to see more
 ConditionsComfort  
Time TempWeatherWind HumidityBarometerVisibility
6:00 PM
Mon, Aug 29
78 °FWarm.13 mph54%29.94 "HgN/A
5:00 PM77 °FWarm.14 mph53%29.95 "HgN/A
4:00 PM81 °FWarm.6 mph62%29.92 "HgN/A
3:00 PM83 °FWarm.9 mph61%29.92 "HgN/A
2:00 PM83 °FWarm.8 mph59%29.93 "HgN/A
1:00 PM83 °FWarm.7 mph55%29.94 "HgN/A
12:00 PM81 °FWarm.1 mph52%29.97 "HgN/A
11:00 AM78 °FWarm.1 mph58%29.99 "HgN/A
10:00 AM75 °FMild.3 mph63%30.02 "HgN/A
9:00 AM71 °FMild.5 mph79%30.03 "HgN/A
8:00 AM69 °FMild.2 mph86%30.04 "HgN/A
7:00 AM67 °FMild.2 mph89%30.04 "HgN/A
6:00 AM64 °FMild.1 mph97%30.03 "HgN/A
5:00 AM65 °FMild.1 mph96%30.04 "HgN/A
4:00 AM66 °FMild.1 mph95%30.04 "HgN/A
3:00 AM67 °FMild.No wind96%30.05 "HgN/A
2:00 AM69 °FMild.2 mph90%30.05 "HgN/A
1:00 AM69 °FMild.2 mph92%30.06 "HgN/A
12:00 AM70 °FMild.3 mph93%30.06 "HgN/A
11:00 PM
Sun, Aug 28
71 °FMild.2 mph89%30.05 "HgN/A
10:00 PM73 °FMild.3 mph83%30.04 "HgN/A
9:00 PM72 °FMild.2 mph88%30.02 "HgN/A
8:00 PM76 °FMild.1 mph77%30.00 "HgN/A
Weather by CustomWeather, © 2016

See weather overviewHow to use our weather pages